Temperature
19 19 19 19 20 20 20 20 20 20 20 20 19 19 19 19 19 19 19 18 18 18 18 18 18 18 18 18 18 18 17 17 17 17 17 17 17 17 17 17 17 17 17
20 20 19 19 20 20 20 20 20 20 20 20 19 19 19 19 19 19 18 18 18 18 18 18 18 18 18 18 18 18 17 17 17 17 17 17 17 17 17 17 17 17 17
20 20 19 19 20 20 20 20 20 20 20 20 19 19 19 19 19 19 18 18 18 18 18 18 18 18 18 18 18 18 17 17 17 17 17 17 17 17 17 17 17 17 17
20 20 20 20 20 20 20 20 20 20 20 19 19 19 19 19 19 19 18 18 18 18 18 18 18 18 18 18 18 18 17 17 17 17 17 17 17 17 17 17 17 17 17
20 20 20 20 20 20 20 20 20 20 19 19 19 19 19 19 19 18 18 18 18 18 18 18 18 18 18 18 18 17 17 17 17 17 17 17 17 17 17 17 17 17 17
20 20 20 20 20 20 20 20 20 19 19 19 19 19 19 19 18 18 18 18 18 18 18 18 18 18 18 18 17 17 17 17 17 17 17 17 17 17 17 17 17 17 17
20 20 20 20 20 20 20 20 19 19 19 19 19 19 18 18 18 18 18 18 18 18 18 18 18 18 18 17 17 17 17 17 17 17 17 17 17 17 17 17 17 17 17
20 20 20 20 20 20 19 19 19 19 19 19 19 18 18 18 18 18 18 18 18 18 18 18 18 17 17 17 17 17 17 17 17 17 17 17 17 17 17 17 17 17 17
20 20 20 19 19 19 19 19 19 19 19 18 18 18 18 18 18 18 18 18 18 18 18 18 17 17 17 17 18 17 17 18 17 17 17 17 17 17 17 17 17 17 17
20 20 19 19 19 19 19 19 19 19 18 18 18 18 18 18 18 18 18 18 18 17 17 17 17 17 17 17 17 17 18 18 17 17 17 17 17 17 17 17 17 17 17
19 19 19 19 19 19 19 19 19 18 18 18 18 18 18 18 18 17 17 17 17 17 17 17 17 17 17 17 17 17 18 18 17 17 17 17 17 17 17 17 17 17 17
19 19 19 19 19 19 19 19 18 18 18 18 18 17 17 17 17 17 17 17 17 17 17 17 17 17 17 17 17 18 18 18 18 17 17 17 17 17 17 17 17 17 17
19 19 19 19 19 19 19 19 18 18 18 18 17 17 17 17 17 17 17 17 17 17 17 17 17 17 17 17 17 17 18 18 18 17 17 17 17 17 17 17 17 17 17
19 19 19 19 19 19 19 19 18 18 18 18 17 17 17 17 17 17 17 17 17 17 17 17 17 17 17 17 17 17 17 17 17 17 17 17 17 17 17 17 17 17 17
19 19 19 18 18 18 18 18 18 18 18 18 17 17 17 17 17 17 17 17 17 17 17 17 17 17 17 17 17 17 17 17 17 17 17 17 17 17 17 17 17 17 17
19 19 19 18 18 18 18 18 18 18 18 17 17 17 17 17 17 17 17 17 17 17 17 17 17 17 17 17 17 17 17 17 17 17 17 17 17 17 17 17 17 17 16
19 19 18 18 18 18 18 18 18 18 18 17 17 17 17 17 17 17 17 17 16 16 16 16 16 16 16 17 17 17 17 17 17 17 17 17 17 17 16 16 16 16 16
18 18 18 18 18 18 18 18 18 18 17 17 17 17 17 17 17 16 16 16 16 16 16 16 16 16 16 16 16 16 17 17 16 16 16 16 16 16 16 16 16 16 16
18 18 18 18 18 18 18 17 17 17 17 17 17 17 17 16 16 16 16 16 16 16 16 16 16 16 16 16 16 16 16 16 16 16 16 16 16 16 16 16 16 16 16
17 17 17 18 17 17 17 17 17 17 17 17 17 17 16 16 16 16 16 16 16 15 15 15 16 16 16 16 16 16 16 16 16 16 16 16 16 16 16 16 16 16 16
17 17 17 17 17 17 17 17 17 17 17 17 16 16 16 16 16 16 16 16 15 15 15 15 15 15 15 15 15 16 16 16 16 16 16 16 16 16 16 16 16 16 16
17 17 17 17 17 17 17 17 17 17 17 17 16 16 16 16 16 16 15 15 15 15 15 15 15 15 15 15 15 16 16 15 16 16 16 16 16 16 16 16 16 15 15
17 17 17 17 17 17 17 17 17 17 17 16 16 16 16 16 15 15 15 15 15 15 15 15 15 15 15 15 15 16 16 16 16 16 16 16 16 16 16 16 16 15 15
17 17 17 17 17 17 17 17 17 17 17 17 16 16 16 16 15 15 15 15 15 15 15 15 15 15 15 15 15 15 16 16 16 16 16 16 16 16 16 16 15 15 15
17 17 17 17 16 17 17 17 17 17 17 17 16 16 16 15 15 15 15 15 15 15 15 15 15 15 15 15 15 15 16 16 16 16 16 16 16 16 16 16 15 15 15
17 17 17 17 16 16 16 16 17 17 17 16 16 16 16 16 15 15 15 15 15 15 15 15 15 15 15 15 15 15 15 15 16 16 16 16 16 16 16 16 16 15 15
Wind_Speed
9 12 19 19 19 19 19 19 19 19 19 19 19 18 18 17 16 15 14 13 12 11 11 11 10 10 11 11 11 12 13 14 14 15 16 16 16 17 18 18 17 16 18
14 17 20 20 19 19 19 19 19 18 18 18 18 17 17 16 15 14 13 13 12 12 11 11 11 11 11 12 12 12 13 13 14 14 15 15 16 16 17 17 16 15 18
17 17 20 20 19 19 19 18 18 18 17 17 17 16 16 15 14 14 13 13 12 12 11 11 11 12 12 12 12 12 13 13 13 14 14 13 14 15 16 16 17 17 17
17 17 19 21 20 19 19 18 18 17 17 16 16 15 15 14 13 13 13 12 12 12 12 11 11 12 12 12 12 13 13 13 13 13 12 11 12 14 15 16 16 16 16
14 17 20 22 21 19 19 18 17 17 16 16 15 14 14 13 12 12 12 12 11 11 11 11 11 11 11 11 12 12 13 13 13 12 10 10 11 14 15 16 16 16 15
13 16 20 23 21 20 19 18 17 16 15 15 14 13 13 12 12 11 11 11 11 11 10 10 10 11 11 11 11 12 13 13 12 10 10 11 11 13 14 15 15 15 15
13 13 19 22 21 20 19 18 17 16 15 14 14 13 12 12 11 10 10 10 10 9 9 9 9 9 10 10 10 11 13 14 11 10 9 9 11 14 14 14 14 14 14
15 13 18 21 21 20 19 18 17 16 15 14 13 12 12 11 10 10 9 9 8 8 8 8 8 8 8 8 9 10 13 13 11 10 9 9 11 13 13 13 13 13 13
12 11 13 17 19 19 19 18 17 15 14 13 13 12 11 10 10 9 8 8 7 7 6 6 6 6 6 6 7 9 12 13 11 9 9 9 11 12 13 13 13 12 12
11 10 9 13 14 15 16 17 16 15 14 13 12 11 10 10 9 8 7 6 6 6 5 5 5 5 5 5 6 8 10 11 10 9 8 9 12 12 12 12 12 12 11
12 9 8 9 11 12 13 15 16 15 14 13 11 11 9 7 6 6 6 6 5 5 4 3 3 3 4 4 5 7 8 8 9 8 8 10 12 12 12 11 11 11 11
14 12 9 9 9 11 12 12 11 11 11 9 8 7 7 6 5 5 5 5 5 5 4 3 2 2 4 4 4 5 6 7 7 7 8 11 11 11 11 11 10 10 11
13 13 10 9 9 9 7 9 7 8 8 8 7 7 6 5 4 3 2 2 1 2 1 1 2 2 3 3 3 3 4 5 5 6 7 10 10 10 11 10 10 10 10
11 11 10 9 8 7 7 7 7 6 6 6 6 7 6 4 3 2 2 1 1 1 1 1 2 2 2 2 2 3 3 3 4 5 6 9 10 10 10 10 9 9 10
11 10 9 8 9 7 6 6 7 6 6 6 6 7 7 5 3 2 2 2 2 2 2 1 1 2 2 2 1 3 3 3 4 4 4 7 9 9 9 9 9 9 9
11 10 9 8 8 7 6 5 5 6 7 7 6 7 7 6 5 3 2 2 1 2 2 2 2 2 2 2 1 1 2 2 3 3 2 3 5 7 8 9 10 10 10
12 11 10 10 8 8 7 6 6 7 8 6 6 7 7 7 7 5 3 2 1 2 3 3 3 3 2 2 1 1 1 1 2 2 2 2 2 5 7 8 9 9 10
9 10 10 10 9 8 7 6 6 8 7 6 7 7 7 7 8 6 3 2 2 4 4 3 3 2 2 2 1 1 1 1 1 1 1 2 2 2 5 7 9 10 10
9 9 9 8 9 8 7 5 6 6 6 6 7 6 7 7 8 7 4 3 4 4 3 2 2 2 2 2 1 2 2 1 1 0 1 1 2 3 4 5 8 9 10
8 8 9 9 8 7 6 6 5 5 4 5 5 6 7 8 8 7 5 4 5 4 3 3 3 3 2 2 3 3 3 2 2 2 1 1 2 3 4 5 5 7 9
9 9 9 9 9 8 6 6 5 4 3 3 3 6 7 8 8 7 5 4 4 3 3 3 3 3 3 1 3 3 3 3 2 2 2 1 1 1 3 4 4 5 6
10 10 10 10 10 9 7 5 4 5 4 3 3 4 6 8 8 7 6 4 4 4 4 3 3 3 2 2 2 3 2 3 3 2 2 1 1 1 1 2 3 4 5
10 10 10 10 9 9 8 7 6 5 4 3 3 2 3 6 7 7 7 6 4 4 4 3 3 4 3 2 2 3 3 3 1 2 2 1 1 1 1 1 2 3 4
9 8 9 9 9 9 10 10 11 7 5 5 4 3 3 4 6 7 8 7 5 4 4 3 2 3 4 2 2 2 2 2 2 0 2 2 2 1 1 1 1 2 3
8 8 9 9 9 8 9 10 10 7 4 4 4 5 3 2 3 5 7 6 5 4 4 3 3 3 2 3 2 2 2 2 1 2 1 2 2 2 2 2 2 2 3
8 8 9 10 9 9 9 9 9 10 8 7 6 5 4 2 2 3 5 5 5 4 4 4 3 3 3 3 2 2 2 2 2 2 1 1 1 2 2 2 2 3 3
Wind_Direction
161 160 156 148 140 134 130 128 126 124 123 123 123 124 125 126 126 126 126 123 119 115 111 109 107 106 107 108 109 111 115 119 120 119 118 118 116 115 114 113 111 111 112
151 158 157 150 144 139 135 131 129 128 127 126 126 126 126 127 127 127 125 121 118 115 112 109 108 109 109 109 110 113 117 120 119 119 118 117 118 117 116 116 115 116 116
147 155 155 152 147 143 138 135 133 131 130 129 128 128 128 128 128 128 125 121 119 114 111 109 109 110 111 111 113 117 118 117 116 115 114 113 117 120 120 121 119 118 117
146 151 154 154 150 146 142 139 137 136 134 133 131 131 131 130 129 129 126 123 120 116 112 110 109 110 111 113 116 119 119 116 114 110 107 114 120 123 122 122 121 120 119
145 150 156 155 153 150 146 144 142 141 139 138 136 135 134 134 133 130 127 125 120 115 111 110 110 110 111 115 121 124 125 120 115 107 107 111 119 125 124 123 123 122 121
145 150 158 156 155 153 150 148 146 146 145 143 141 141 139 136 134 132 130 126 121 116 111 109 109 109 112 117 123 129 131 126 117 111 111 117 124 127 125 125 126 124 124
146 151 159 157 157 156 154 152 151 151 150 148 145 143 141 139 137 135 132 129 125 120 115 111 108 107 111 116 125 132 135 131 125 120 118 122 128 130 128 128 128 126 128
150 151 158 159 159 158 157 155 155 155 154 152 150 148 146 146 144 141 138 134 131 126 120 114 110 106 105 110 119 129 137 135 135 131 127 129 133 132 131 130 130 130 131
149 149 153 158 161 161 160 159 159 159 157 155 154 154 154 153 153 151 148 144 140 133 127 120 112 105 100 107 117 130 138 138 139 139 138 136 136 136 135 134 134 134 136
149 151 149 153 157 159 161 163 163 162 161 160 160 160 161 160 161 160 156 158 153 147 140 130 116 100 93 103 114 130 134 135 140 143 143 148 146 144 142 140 138 138 138
157 151 148 149 150 152 158 166 166 166 166 164 165 168 164 158 161 162 165 173 169 164 158 149 126 100 88 87 101 121 123 129 139 145 151 158 157 153 149 147 147 145 143
166 161 157 158 152 152 162 162 159 158 160 158 160 156 147 148 159 169 179 183 183 180 175 170 146 102 92 83 89 111 122 136 142 151 161 164 165 161 156 154 152 151 149
167 165 165 164 156 155 151 147 143 141 144 146 149 145 145 144 151 156 163 175 172 170 140 110 94 91 105 108 109 126 142 144 152 155 168 173 173 169 164 162 161 160 157
164 168 163 162 158 155 148 146 142 141 144 144 149 153 151 145 147 153 162 162 130 120 123 119 103 100 106 127 143 148 150 147 154 160 173 179 180 177 172 170 170 170 168
171 169 163 161 161 153 147 150 151 150 154 153 153 160 162 155 152 147 142 142 145 141 142 149 137 120 107 101 142 161 166 161 155 159 171 183 185 183 182 180 181 185 182
178 171 164 166 164 153 152 150 149 152 151 149 153 162 163 157 149 141 134 134 140 147 151 149 136 119 106 112 101 139 153 156 156 158 168 192 196 196 196 194 193 197 195
180 173 171 172 165 159 158 158 151 149 147 146 148 155 157 154 150 145 136 136 149 136 128 115 96 92 98 97 75 58 88 125 147 171 193 207 210 213 211 207 208 208 207
177 174 178 181 171 168 161 151 144 145 144 145 145 148 152 153 150 142 136 140 139 128 122 109 96 90 82 87 83 39 42 48 136 195 204 218 216 221 221 218 222 221 219
174 173 175 175 172 167 155 141 132 134 136 140 141 141 142 145 147 139 130 129 126 112 105 117 87 100 99 88 96 59 32 22 16 353 225 228 230 227 228 231 233 232 230
170 175 177 169 163 150 135 120 109 108 115 126 132 136 136 138 140 130 120 117 119 107 97 96 97 79 85 91 85 64 36 18 30 21 350 304 238 233 229 234 239 244 238
169 170 175 170 160 154 147 147 142 145 141 125 129 133 137 139 138 129 122 113 113 114 121 119 103 88 65 61 84 49 22 25 32 19 9 0 325 265 222 221 225 236 242
177 174 174 173 168 167 166 156 141 134 127 117 111 122 138 140 141 137 132 127 122 115 109 110 117 108 69 49 112 96 38 4 5 14 8 4 343 332 250 229 221 226 234
177 177 178 174 167 162 153 131 116 97 89 99 117 123 131 140 141 138 138 133 131 127 128 124 132 133 130 64 64 134 141 206 301 340 8 18 353 345 329 298 243 233 232
177 172 165 162 157 158 153 151 149 151 156 171 161 149 125 131 138 142 140 137 132 128 131 136 132 134 137 134 85 61 104 143 147 349 340 356 351 341 321 310 299 259 236
165 163 158 153 152 157 159 159 154 147 146 134 131 134 128 116 133 144 143 138 136 135 137 128 121 124 129 141 144 130 101 75 88 141 229 329 345 329 306 290 280 271 249
150 152 154 154 154 155 156 158 157 154 149 145 148 153 152 142 139 152 148 146 145 144 145 140 129 129 123 123 128 136 146 148 158 149 169 242 298 309 315 295 267 260 254
Height
1513 1517 1520 1523 1525 1527 1529 1530 1531 1533 1534 1535 1536 1538 1539 1540 1541 1541 1542 1543 1544 1544 1545 1545 1546 1547 1547 1548 1548 1549 1549 1550 1551 1552 1553 1554 1555 1556 1558 1559 1560 1561 1563
1511 1516 1520 1523 1526 1528 1530 1531 1533 1534 1535 1537 1538 1539 1540 1541 1542 1543 1544 1545 1545 1546 1546 1547 1547 1548 1549 1549 1550 1550 1551 1552 1553 1554 1555 1556 1557 1559 1560 1561 1562 1563 1565
1511 1516 1520 1524 1526 1529 1530 1532 1534 1535 1537 1538 1539 1540 1542 1543 1544 1545 1546 1546 1547 1547 1548 1548 1549 1550 1550 1551 1551 1552 1553 1554 1555 1556 1557 1558 1559 1561 1562 1563 1564 1566 1567
1511 1516 1520 1524 1527 1529 1531 1533 1535 1536 1538 1539 1541 1542 1543 1544 1546 1547 1547 1548 1549 1549 1550 1550 1551 1551 1552 1553 1553 1554 1555 1556 1557 1558 1559 1560 1561 1563 1564 1565 1567 1568 1569
1512 1516 1520 1524 1527 1530 1532 1534 1536 1538 1539 1541 1542 1544 1545 1546 1547 1548 1549 1550 1550 1551 1551 1552 1552 1553 1554 1555 1556 1556 1557 1558 1559 1560 1561 1562 1563 1565 1566 1567 1569 1570 1571
1513 1517 1521 1525 1528 1530 1533 1535 1537 1539 1541 1542 1544 1545 1546 1548 1549 1550 1551 1552 1552 1553 1553 1554 1554 1555 1556 1557 1558 1559 1559 1560 1561 1562 1563 1564 1565 1567 1568 1569 1571 1572 1573
1514 1518 1522 1525 1528 1531 1534 1536 1538 1540 1542 1543 1545 1546 1548 1549 1550 1551 1552 1553 1554 1555 1555 1556 1557 1557 1558 1559 1560 1560 1561 1562 1563 1564 1565 1566 1567 1568 1570 1571 1572 1574 1575
1514 1518 1522 1526 1529 1532 1534 1536 1539 1541 1543 1545 1546 1548 1549 1550 1552 1553 1554 1555 1556 1556 1557 1558 1558 1559 1560 1561 1562 1562 1563 1564 1565 1566 1567 1568 1569 1570 1572 1573 1574 1576 1577
1515 1519 1522 1526 1529 1532 1535 1537 1539 1542 1544 1545 1547 1549 1550 1551 1553 1554 1555 1556 1557 1558 1558 1559 1560 1561 1562 1563 1563 1564 1565 1566 1566 1567 1568 1570 1571 1572 1573 1575 1576 1577 1579
1515 1519 1522 1526 1529 1532 1535 1537 1540 1542 1544 1546 1548 1550 1551 1552 1554 1555 1556 1557 1558 1559 1560 1560 1561 1562 1563 1564 1565 1566 1567 1567 1568 1569 1570 1571 1572 1574 1575 1576 1578 1579 1580
1514 1518 1522 1525 1529 1532 1535 1537 1540 1542 1545 1547 1549 1550 1552 1553 1554 1556 1557 1558 1559 1560 1561 1561 1562 1563 1564 1565 1566 1567 1568 1569 1569 1570 1571 1573 1574 1575 1576 1578 1579 1580 1581
1512 1516 1521 1525 1528 1531 1535 1537 1540 1542 1545 1547 1549 1550 1552 1554 1555 1556 1557 1558 1559 1560 1561 1562 1563 1564 1565 1566 1567 1568 1569 1570 1571 1572 1573 1574 1575 1576 1578 1579 1580 1581 1583
1511 1515 1520 1525 1528 1531 1534 1537 1539 1542 1544 1547 1549 1551 1552 1554 1555 1557 1558 1559 1560 1561 1561 1562 1563 1564 1565 1567 1568 1569 1570 1571 1572 1573 1574 1575 1576 1577 1578 1580 1581 1583 1584
1510 1514 1519 1524 1527 1531 1534 1536 1539 1542 1544 1547 1549 1551 1553 1554 1556 1557 1558 1559 1560 1561 1562 1563 1564 1565 1566 1567 1568 1570 1571 1572 1573 1574 1575 1576 1577 1578 1579 1580 1582 1583 1585
1509 1513 1519 1523 1527 1530 1534 1537 1539 1542 1545 1547 1549 1551 1553 1554 1556 1557 1558 1559 1560 1561 1562 1563 1564 1565 1566 1567 1568 1570 1571 1572 1573 1574 1575 1576 1577 1578 1580 1581 1582 1584 1585
1508 1512 1517 1522 1526 1530 1533 1536 1539 1542 1544 1547 1549 1551 1552 1554 1555 1556 1557 1558 1559 1561 1562 1563 1564 1565 1566 1567 1568 1570 1571 1572 1573 1574 1575 1576 1577 1578 1580 1581 1582 1584 1585
1507 1511 1516 1520 1524 1528 1532 1536 1539 1541 1544 1546 1549 1550 1552 1553 1554 1556 1557 1558 1559 1560 1561 1562 1563 1564 1565 1566 1568 1569 1570 1571 1573 1574 1575 1576 1577 1578 1580 1581 1582 1584 1585
1506 1510 1514 1519 1522 1527 1531 1535 1538 1541 1543 1546 1548 1550 1551 1552 1554 1555 1556 1557 1558 1559 1560 1561 1562 1563 1565 1566 1567 1568 1569 1571 1572 1573 1574 1575 1576 1578 1579 1580 1581 1583 1584
1504 1508 1512 1517 1521 1525 1530 1534 1537 1540 1543 1545 1547 1549 1550 1552 1553 1554 1555 1556 1557 1559 1560 1561 1562 1563 1564 1565 1567 1568 1569 1570 1571 1572 1573 1575 1576 1577 1578 1579 1581 1582 1583
1502 1506 1510 1514 1519 1524 1528 1532 1536 1539 1542 1544 1546 1548 1549 1551 1552 1553 1554 1555 1557 1558 1559 1561 1562 1563 1564 1565 1566 1567 1568 1570 1571 1571 1573 1574 1575 1576 1577 1578 1579 1581 1582
1499 1502 1506 1511 1516 1521 1526 1530 1534 1538 1541 1543 1546 1547 1549 1550 1552 1553 1554 1555 1556 1558 1559 1560 1561 1563 1564 1565 1566 1567 1568 1569 1570 1571 1572 1573 1574 1575 1576 1577 1578 1579 1580
1495 1499 1504 1509 1514 1519 1524 1529 1533 1537 1540 1542 1544 1546 1548 1549 1551 1552 1553 1554 1555 1557 1558 1559 1561 1562 1563 1564 1566 1567 1568 1570 1570 1571 1571 1572 1573 1574 1575 1576 1577 1578 1579
1493 1497 1501 1506 1512 1518 1523 1527 1531 1535 1538 1541 1544 1546 1547 1549 1550 1552 1553 1554 1555 1556 1558 1559 1560 1561 1562 1564 1565 1567 1568 1568 1569 1570 1571 1571 1572 1573 1574 1575 1576 1576 1577
1491 1496 1501 1506 1511 1517 1521 1525 1529 1533 1536 1539 1543 1545 1546 1548 1549 1551 1552 1553 1554 1556 1557 1558 1559 1561 1562 1563 1564 1566 1567 1567 1569 1569 1571 1571 1571 1572 1573 1574 1575 1575 1576
1491 1495 1500 1505 1509 1515 1520 1524 1528 1532 1536 1539 1542 1544 1546 1547 1549 1550 1552 1553 1554 1555 1556 1558 1559 1560 1561 1563 1564 1565 1566 1567 1568 1569 1569 1570 1571 1572 1572 1573 1574 1574 1575
1491 1494 1499 1504 1509 1513 1518 1523 1527 1531 1535 1538 1541 1543 1545 1547 1548 1550 1551 1552 1553 1555 1556 1557 1558 1559 1561 1562 1563 1564 1565 1566 1567 1567 1568 1569 1569 1570 1571 1572 1572 1573 1573